This demonstration page uses our WeatherBlox Daily Observations layout. Learn more.

Left ArrowRight Arrow

41.86663, -103.66717

Hourly Observations for August 31, 2021

Temp ( °F °C ) Dew Point ( °F °C ) Humidity (%) Winds ( mph kmh ) Pressure ( in mb ) Visibility ( mi km ) Precip ( " mm )
12:53 am 00:53 Clear 59 15 49 9.4 69 69 N 5 7 29.68 1005 10 16 N/A
1:53 am 01:53 Clear 55 12.8 49 9.4 80 80 WNW 6 9 29.69 1005 10 16 N/A
2:53 am 02:53 Clear 57 13.9 48 8.9 72 72 NNW 10 17 29.67 1005 9 14 N/A
3:53 am 03:53 Clear 57 13.9 49 9.4 74 74 NNW 6 9 29.68 1005 10 16 N/A
4:53 am 04:53 Clear 55 12.8 48 8.9 77 77 WNW 5 7 29.70 1006 9 14 N/A
5:53 am 05:53 Clear 59 15 56 13.3 90 90 E 3 6 29.70 1006 8 13 N/A
6:08 am 06:08 Partly Cloudy 59 15 55 12.8 87 87 ENE 6 9 29.74 1007 8 13 N/A
6:17 am 06:17 Mostly Cloudy 60 15.6 56 13.3 86 86 N N/A 29.74 1007 8 13 N/A
6:42 am 06:42 Cloudy with Mist and Fog 60 15.6 57 13.9 90 90 N N/A 29.74 1007 2 3 N/A
6:53 am 06:53 Cloudy with Fog 61 16.1 58 14.4 90 90 N N/A 29.74 1007 1 1 N/A
7:11 am 07:11 Cloudy with Mist and Fog 61 16.1 58 14.4 90 90 E 3 6 29.75 1007 2 3 N/A
7:19 am 07:19 Cloudy with Mist and Fog 63 17 59 15 88 88 ESE 3 6 29.73 1007 4 6 N/A
7:53 am 07:53 Cloudy with Mist and Fog 62 16.7 58 14.4 86 86 SE 6 9 29.78 1009 5 8 N/A
8:03 am 08:03 Cloudy with Mist and Fog 62 16.7 58 14.4 86 86 SE 3 6 29.76 1008 6 10 N/A
8:53 am 08:53 Cloudy 65 18.3 58 14.4 78 78 ESE 7 11 29.78 1009 10 16 N/A
9:19 am 09:19 Mostly Sunny 66 18.9 58 14.4 75 75 SE 6 9 29.73 1007 10 16 N/A
9:53 am 09:53 Sunny 68 20 58 14.4 70 70 ESE 10 17 29.79 1009 10 16 N/A
10:53 am 10:53 Sunny 72 22.2 58 14.4 61 61 ESE 10 17 29.78 1009 10 16 N/A
11:53 am 11:53 Sunny 76 24.4 58 14.4 54 54 E 13 20 29.76 1008 10 16 N/A
12:53 pm 12:53 Sunny 80 26.7 57 13.9 45 45 SSE 9 15 29.73 1007 10 16 N/A
1:53 pm 13:53 Sunny 84 28.9 57 13.9 40 40 E 9 15 29.71 1006 10 16 N/A
2:53 pm 14:53 Sunny 86 30 57 13.9 37 37 E 9 15 29.68 1005 10 16 N/A
3:53 pm 15:53 Sunny 87 30.6 60 15.6 40 40 ESE 16 26 29.65 1004 10 16 N/A
4:53 pm 16:53 Sunny 87 30.6 62 16.7 43 43 E 12 19 29.65 1004 10 16 N/A
5:53 pm 17:53 Sunny 84 28.9 62 16.7 48 48 E 12 19 29.65 1004 10 16 N/A
6:53 pm 18:53 Sunny 81 27.2 62 16.7 53 53 E 16 26 29.65 1004 10 16 N/A
7:53 pm 19:53 Clear 76 24.4 63 17.2 64 64 ESE 12 19 29.67 1005 10 16 N/A
8:53 pm 20:53 Clear 73 22.8 62 16.7 69 69 E 12 19 29.70 1006 10 16 N/A
9:53 pm 21:53 Clear 71 21.7 63 17.2 76 76 ESE 13 20 29.72 1006 10 16 N/A
10:53 pm 22:53 Clear 71 21.7 62 16.7 73 73 ESE 13 20 29.72 1007 10 16 N/A
11:53 pm 23:53 Clear 69 20.6 63 17.2 81 81 ESE 12 19 29.72 1006 10 16 N/A

Powered by AerisWeather